When you browse on this site, cookies collect data to enhance your experience and personalize the content and advertising you see.
Visit our Privacy Policy to learn more. By continuing to use the site, you agree to this use of cookies and data.
  • In United Kingdom
  • List of Countries
  • For 7 days
  • Water Temperature
  • Satellite Maps
  • Weather Map
  • Weather Widgets
  • user-avatar
    Login

    Hourly Weather Vasyl'ky

    Today, 26 April, Friday

    Time Temperature Precipitation Wind Pressure Humidity
    00:00 +17°C° 0 mm 2 mps 758 mmHg 49%
    01:00 +16°C° 0 mm 2 mps 757 mmHg 50%
    02:00 +16°C° 0 mm 1 mps 757 mmHg 51%
    03:00 +15°C° 0 mm 1 mps 757 mmHg 54%
    04:00 +15°C° 0 mm 1 mps 757 mmHg 56%
    05:00 +14°C° 0 mm 1 mps 757 mmHg 59%
    06:00 +16°C° 0 mm 1 mps 757 mmHg 55%
    07:00 +19°C° 0 mm 1 mps 757 mmHg 52%
    08:00 +20°C° 0 mm 1 mps 757 mmHg 49%
    09:00 +21°C° 0 mm 1 mps 757 mmHg 45%
    10:00 +23°C° 0 mm 1 mps 757 mmHg 41%
    11:00 +24°C° 0 mm 1 mps 756 mmHg 37%
    12:00 +24°C° 0 mm 1 mps 756 mmHg 37%
    13:00 +24°C° 0 mm 2 mps 756 mmHg 37%
    14:00 +24°C° 0 mm 2 mps 756 mmHg 38%
    15:00 +24°C° 0 mm 2 mps 755 mmHg 40%
    16:00 +23°C° 0 mm 2 mps 755 mmHg 42%
    17:00 +23°C° 0 mm 2 mps 755 mmHg 44%
    18:00 +20°C° 0 mm 2 mps 755 mmHg 47%
    19:00 +19°C° 0 mm 2 mps 755 mmHg 49%
    20:00 +17°C° 0 mm 2 mps 755 mmHg 52%
    21:00 +16°C° 0 mm 2 mps 755 mmHg 51%
    22:00 +16°C° 0 mm 1 mps 754 mmHg 50%
    23:00 +15°C° 0 mm 1 mps 754 mmHg 50%

    Tomorrow, 27 April, Saturday

    Time Temperature Precipitation Wind Pressure Humidity
    00:00 +14°C° 0 mm 1 mps 754 mmHg 50%
    01:00 +14°C° 0 mm 1 mps 754 mmHg 50%
    02:00 +13°C° 0 mm 1 mps 754 mmHg 50%
    03:00 +13°C° 0 mm 1 mps 754 mmHg 54%
    04:00 +12°C° 0 mm 1 mps 754 mmHg 57%
    05:00 +12°C° 0 mm 1 mps 753 mmHg 61%
    06:00 +14°C° 0 mm 2 mps 753 mmHg 59%
    07:00 +16°C° 0 mm 2 mps 753 mmHg 57%
    08:00 +17°C° 0 mm 2 mps 753 mmHg 55%
    09:00 +19°C° 0 mm 3 mps 753 mmHg 48%
    10:00 +20°C° 0 mm 4 mps 752 mmHg 42%
    11:00 +21°C° 0 mm 5 mps 752 mmHg 35%
    12:00 +21°C° 0 mm 5 mps 752 mmHg 36%
    13:00 +21°C° 0 mm 5 mps 751 mmHg 38%
    14:00 +22°C° 0 mm 5 mps 751 mmHg 39%
    15:00 +21°C° 0 mm 4 mps 751 mmHg 42%
    16:00 +21°C° 0 mm 3 mps 750 mmHg 46%
    17:00 +21°C° 0 mm 3 mps 750 mmHg 50%
    18:00 +20°C° 0 mm 3 mps 750 mmHg 53%
    19:00 +19°C° 0 mm 3 mps 750 mmHg 56%
    20:00 +17°C° 0 mm 3 mps 750 mmHg 60%
    21:00 +17°C° 0 mm 3 mps 749 mmHg 62%
    22:00 +16°C° 0 mm 3 mps 749 mmHg 64%
    23:00 +14°C° 0 mm 4 mps 749 mmHg 66%

    Day after tomorrow, 28 April, Sunday

    Time Temperature Precipitation Wind Pressure Humidity
    00:00 +14°C° 0 mm 4 mps 749 mmHg 66%
    01:00 +14°C° 0 mm 4 mps 749 mmHg 65%
    02:00 +13°C° 0 mm 5 mps 748 mmHg 64%
    03:00 +13°C° 0 mm 4 mps 748 mmHg 65%
    04:00 +13°C° 0 mm 4 mps 748 mmHg 66%
    05:00 +12°C° 0 mm 4 mps 748 mmHg 67%
    06:00 +13°C° 0.2 mm 4 mps 748 mmHg 67%
    07:00 +13°C° 0.2 mm 5 mps 748 mmHg 67%
    08:00 +14°C° 0.2 mm 5 mps 748 mmHg 67%
    09:00 +15°C° 0.2 mm 5 mps 748 mmHg 64%
    10:00 +16°C° 0.2 mm 5 mps 747 mmHg 62%
    11:00 +19°C° 0.2 mm 5 mps 747 mmHg 59%
    12:00 +19°C° 0.3 mm 5 mps 747 mmHg 61%
    13:00 +18°C° 0.3 mm 4 mps 747 mmHg 64%
    14:00 +18°C° 0.3 mm 4 mps 747 mmHg 66%
    15:00 +18°C° 0.1 mm 3 mps 747 mmHg 67%
    16:00 +18°C° 0.1 mm 2 mps 747 mmHg 69%
    17:00 +19°C° 0.1 mm 1 mps 747 mmHg 71%
    18:00 +18°C° 0.4 mm 1 mps 747 mmHg 76%
    19:00 +16°C° 0.4 mm 1 mps 748 mmHg 81%
    20:00 +16°C° 0.4 mm 1 mps 748 mmHg 86%
    21:00 +15°C° 0.6 mm 2 mps 748 mmHg 88%
    22:00 +15°C° 0.6 mm 2 mps 748 mmHg 91%
    23:00 +15°C° 0.6 mm 2 mps 749 mmHg 93%

    29 April, Monday

    Time Temperature Precipitation Wind Pressure Humidity
    00:00 +13°C° 1.2 mm 3 mps 749 mmHg 93%
    01:00 +13°C° 1.2 mm 4 mps 749 mmHg 93%
    02:00 +12°C° 1.2 mm 5 mps 749 mmHg 92%
    03:00 +10°C° 2.3 mm 6 mps 749 mmHg 92%
    04:00 +9°C° 2.3 mm 6 mps 750 mmHg 91%
    05:00 +9°C° 2.3 mm 6 mps 750 mmHg 91%
    06:00 +8°C° 2.2 mm 6 mps 750 mmHg 90%
    07:00 +8°C° 2.2 mm 6 mps 750 mmHg 89%
    08:00 +8°C° 2.2 mm 6 mps 751 mmHg 89%
    09:00 +8°C° 1.2 mm 6 mps 751 mmHg 87%
    10:00 +8°C° 1.2 mm 6 mps 751 mmHg 86%
    11:00 +8°C° 1.2 mm 6 mps 752 mmHg 84%
    12:00 +8°C° 0.4 mm 6 mps 751 mmHg 82%
    13:00 +9°C° 0.4 mm 6 mps 751 mmHg 79%
    14:00 +9°C° 0.4 mm 6 mps 751 mmHg 77%
    15:00 +9°C° 0.1 mm 6 mps 751 mmHg 76%
    16:00 +9°C° 0.1 mm 5 mps 751 mmHg 76%
    17:00 +9°C° 0.1 mm 5 mps 751 mmHg 76%
    18:00 +9°C° 0.2 mm 5 mps 751 mmHg 77%
    19:00 +9°C° 0.2 mm 5 mps 751 mmHg 79%
    20:00 +8°C° 0.2 mm 5 mps 751 mmHg 80%
    21:00 +8°C° 0.3 mm 5 mps 751 mmHg 81%
    22:00 +8°C° 0.3 mm 6 mps 751 mmHg 82%
    23:00 +8°C° 0.3 mm 6 mps 751 mmHg 84%

    30 April, Tuesday

    Time Temperature Precipitation Wind Pressure Humidity
    00:00 +7°C° 0.1 mm 6 mps 751 mmHg 84%
    01:00 +7°C° 0.1 mm 6 mps 750 mmHg 84%
    02:00 +7°C° 0.1 mm 6 mps 750 mmHg 84%
    03:00 +5°C° 0 mm 6 mps 750 mmHg 84%
    04:00 +5°C° 0 mm 6 mps 750 mmHg 84%
    05:00 +5°C° 0 mm 6 mps 749 mmHg 84%
    06:00 +7°C° 0.1 mm 6 mps 749 mmHg 85%
    07:00 +7°C° 0.1 mm 6 mps 749 mmHg 86%
    08:00 +7°C° 0.1 mm 6 mps 749 mmHg 87%
    09:00 +6°C° 0.5 mm 7 mps 749 mmHg 87%
    10:00 +6°C° 0.5 mm 7 mps 749 mmHg 87%
    11:00 +6°C° 0.5 mm 7 mps 749 mmHg 88%
    12:00 +6°C° 1.3 mm 7 mps 748 mmHg 88%
    13:00 +5°C° 1.3 mm 7 mps 748 mmHg 89%
    14:00 +5°C° 1.3 mm 7 mps 748 mmHg 90%
    15:00 +5°C° 0.1 mm 7 mps 748 mmHg 90%
    16:00 +5°C° 0.1 mm 7 mps 747 mmHg 89%
    17:00 +5°C° 0.1 mm 7 mps 747 mmHg 89%
    18:00 +5°C° 0 mm 6 mps 747 mmHg 89%
    19:00 +5°C° 0 mm 6 mps 747 mmHg 90%
    20:00 +5°C° 0 mm 6 mps 747 mmHg 90%
    21:00 +4°C° 0 mm 6 mps 747 mmHg 91%
    22:00 +4°C° 0 mm 6 mps 747 mmHg 91%
    23:00 +4°C° 0 mm 6 mps 746 mmHg 91%

    1 May, Wednesday

    Time Temperature Precipitation Wind Pressure Humidity
    00:00 +5°C° 0 mm 5 mps 746 mmHg 92%
    01:00 +5°C° 0 mm 5 mps 746 mmHg 92%
    02:00 +5°C° 0 mm 5 mps 746 mmHg 92%
    03:00 +5°C° 0.1 mm 5 mps 746 mmHg 92%
    04:00 +5°C° 0.1 mm 5 mps 745 mmHg 93%
    05:00 +5°C° 0.1 mm 5 mps 745 mmHg 93%
    06:00 +5°C° 0.1 mm 5 mps 745 mmHg 93%
    07:00 +6°C° 0.1 mm 5 mps 745 mmHg 93%
    08:00 +6°C° 0.1 mm 5 mps 745 mmHg 92%
    09:00 +6°C° 0.2 mm 5 mps 745 mmHg 92%
    10:00 +7°C° 0.2 mm 4 mps 745 mmHg 92%
    11:00 +8°C° 0.2 mm 4 mps 745 mmHg 92%
    12:00 +8°C° 0.1 mm 4 mps 744 mmHg 91%
    13:00 +10°C° 0.1 mm 4 mps 744 mmHg 89%
    14:00 +11°C° 0.1 mm 4 mps 744 mmHg 88%
    15:00 +11°C° 0.4 mm 4 mps 743 mmHg 89%
    16:00 +11°C° 0.4 mm 4 mps 743 mmHg 90%
    17:00 +11°C° 0.4 mm 4 mps 743 mmHg 90%
    18:00 +10°C° 0.2 mm 4 mps 743 mmHg 92%
    19:00 +10°C° 0.2 mm 4 mps 742 mmHg 94%
    20:00 +9°C° 0.2 mm 3 mps 742 mmHg 96%
    21:00 +9°C° 0.2 mm 3 mps 742 mmHg 96%
    22:00 +9°C° 0.2 mm 3 mps 741 mmHg 97%
    23:00 +9°C° 0.2 mm 2 mps 741 mmHg 97%
    Show more